Location: Pine Mountain Observatory
(43.7910°N, 120.9377°W)
Time: 04:17:04
(UTC-07:00)

APEX - Visible Passes

Search period start: 01 September 2014 00:00
Search period end: 11 September 2014 00:00
Orbit: 339 x 1414 km, 69.9° (Epoch: 30 August)

Date Brightness Start Highest point End Pass type
(mag) Time Alt. Az. Time Alt. Az. Time Alt. Az.
01 Sep 7.2 02:37:43 10° SE 02:42:07 15° E 02:46:20 10° ENE visible
01 Sep 5.4 04:19:45 20° S 04:26:13 68° ESE 04:33:53 10° NNE visible
02 Sep 7.1 02:33:29 13° SE 02:37:23 17° E 02:42:12 10° ENE visible
02 Sep 5.2 04:16:04 25° SSW 04:21:37 75° ESE 04:29:15 10° NNE visible
03 Sep 6.9 02:29:40 16° ESE 02:32:35 20° E 02:37:53 10° ENE visible
03 Sep 5.1 04:12:15 31° SSW 04:16:57 82° ESE 04:24:32 10° NNE visible
03 Sep 6.0 05:55:34 10° WSW 06:02:40 29° NW 06:08:50 10° N visible
04 Sep 6.7 02:25:43 20° ESE 02:27:45 22° E 02:33:25 10° NE visible
04 Sep 5.0 04:08:17 37° SSW 04:12:13 90° ESE 04:19:44 10° NNE visible
04 Sep 6.1 05:51:17 10° WSW 05:58:01 26° NW 06:03:55 10° N visible
05 Sep 6.5 02:21:38 24° ESE 02:22:52 25° E 02:28:51 10° NE visible
05 Sep 5.0 04:04:12 43° SSW 04:07:26 83° WNW 04:14:53 10° NNE visible
05 Sep 6.2 05:46:58 10° W 05:53:20 24° NW 05:58:55 10° N visible
06 Sep 6.4 02:17:26 28° ESE 02:17:55 28° ESE 02:24:09 10° NE visible
06 Sep 5.0 03:59:59 48° SW 04:02:36 76° WNW 04:09:56 10° NNE visible
06 Sep 6.3 05:42:37 10° W 05:48:35 22° NW 05:53:49 10° N visible
07 Sep 6.2 02:13:07 31° ESE 02:13:07 31° ESE 02:19:22 10° NE visible
07 Sep 5.0 03:55:39 52° WSW 03:57:42 69° WNW 04:04:56 10° NNE visible
07 Sep 6.4 05:38:16 10° W 05:43:47 20° NW 05:48:39 10° N visible
08 Sep 6.1 02:08:40 33° E 02:08:40 33° E 02:14:28 10° NE visible
08 Sep 5.1 03:51:13 54° WSW 03:52:45 63° WNW 03:59:50 10° NNE visible
08 Sep 6.5 05:33:53 10° W 05:38:55 18° NW 05:43:23 10° N visible
09 Sep 6.0 02:04:07 36° E 02:04:07 36° E 02:09:30 10° NE visible
09 Sep 5.1 03:46:39 53° W 03:47:44 57° WNW 03:54:41 10° NNE visible
09 Sep 6.5 05:29:31 10° WNW 05:33:59 16° NW 05:38:01 10° N visible
10 Sep 6.0 01:59:28 37° ENE 01:59:28 37° ENE 02:04:26 10° NE visible
10 Sep 5.2 03:41:59 50° WNW 03:42:39 51° WNW 03:49:27 10° NNE visible
10 Sep 6.6 05:25:08 10° WNW 05:29:01 14° NW 05:32:32 10° N visible
